Retour au catalogue

SL-3 DEB

ActifPO
NORAD 35516·DEBRIS·🇷🇺 Russia

Lancé Dec 14, 1982 depuis Plesetsk Cosmodrome

Loading…

Prochains Passages (prochaines 24 heures)

TLE

FraisSource: Space-Track

Époque: Sep 14, 2026, 08:49 UTC

1 35516U 82116H   26257.36804551  .00000063  00000-0  24202-4 0  9995
2 35516  81.2512 257.6740 0066060 343.3562  82.6088 14.17614508672606

Suivez SL-3 DEB en temps réel avec AllMySat

Download on the App Store